Total_Precipitation_Accumulation
0.79 0.86 0.84 0.78 0.77 1.09 1.43 1.61 1.47 1.67 1.74 1.50 1.28 1.18 1.11 1.08 1.19 1.30 1.23 1.39 1.41 1.32 1.41 1.46 1.27 1.05 0.91 0.79 0.70 0.64 0.58 0.60 0.56 0.45 0.35 0.31 0.28 0.30 0.31 0.33 0.32 0.27 0.24
1.30 1.36 1.28 1.18 1.06 1.15 1.41 1.61 1.62 1.81 1.70 1.61 1.18 1.16 1.14 1.16 1.24 1.26 1.20 1.53 1.51 1.36 1.33 1.35 1.34 1.20 1.04 0.93 0.83 0.70 0.60 0.57 0.54 0.44 0.36 0.33 0.30 0.27 0.28 0.33 0.36 0.32 0.23
1.79 1.74 1.56 1.36 1.31 1.41 1.50 1.51 1.53 1.62 1.45 1.36 1.15 1.24 1.23 1.12 1.00 0.99 1.07 1.20 1.22 1.13 1.05 1.01 1.09 1.15 1.20 1.18 1.08 0.98 0.76 0.58 0.50 0.40 0.35 0.29 0.25 0.22 0.24 0.28 0.34 0.34 0.27
1.91 1.90 1.61 1.31 1.41 1.51 1.49 1.47 1.37 1.43 1.38 1.39 1.34 1.28 1.28 1.15 0.94 0.89 0.94 0.93 0.94 0.84 0.87 0.87 0.89 0.97 1.19 1.37 1.39 1.32 1.06 0.72 0.52 0.43 0.37 0.29 0.24 0.19 0.19 0.23 0.31 0.33 0.27
1.77 1.88 1.59 1.41 1.46 1.42 1.34 1.29 1.41 1.57 1.49 1.46 1.44 1.28 1.12 0.99 0.82 0.68 0.64 0.58 0.64 0.71 0.77 0.81 0.78 0.80 1.07 1.41 1.60 1.64 1.45 1.06 0.70 0.50 0.45 0.39 0.31 0.24 0.20 0.19 0.21 0.23 0.23
1.50 1.58 1.39 1.31 1.42 1.39 1.24 1.29 1.40 1.49 1.31 1.36 1.33 1.06 0.93 0.77 0.71 0.59 0.46 0.42 0.40 0.39 0.47 0.62 0.74 0.67 0.83 1.09 1.35 1.52 1.57 1.37 0.99 0.71 0.58 0.50 0.44 0.34 0.23 0.18 0.16 0.17 0.19
1.11 1.26 1.13 1.20 1.28 1.20 1.11 1.13 1.19 1.21 1.04 1.29 1.40 0.95 0.68 0.62 0.56 0.47 0.45 0.41 0.34 0.35 0.41 0.54 0.59 0.60 0.63 0.71 0.93 1.09 1.40 1.51 1.29 0.98 0.75 0.62 0.55 0.47 0.32 0.23 0.18 0.16 0.17
1.03 0.98 0.97 0.98 1.03 1.06 0.96 0.92 1.03 1.01 0.85 1.10 1.21 1.06 0.69 0.52 0.42 0.36 0.36 0.33 0.32 0.38 0.41 0.48 0.57 0.57 0.53 0.62 0.70 0.65 0.88 1.19 1.31 1.22 0.99 0.75 0.64 0.56 0.44 0.35 0.28 0.22 0.19
1.18 1.12 1.03 0.94 0.91 0.94 0.92 0.88 0.96 0.95 0.83 0.87 1.01 1.15 0.88 0.55 0.42 0.30 0.31 0.36 0.43 0.50 0.48 0.51 0.53 0.58 0.56 0.62 0.69 0.78 0.61 0.76 1.06 1.38 1.31 1.00 0.72 0.54 0.45 0.45 0.43 0.32 0.25
1.37 1.24 1.11 0.94 0.81 0.79 0.82 0.75 0.80 0.89 0.89 0.79 0.80 0.87 0.90 0.90 0.81 0.48 0.28 0.30 0.47 0.54 0.52 0.51 0.55 0.59 0.61 0.65 0.78 1.07 0.94 0.76 0.85 1.20 1.38 1.24 0.93 0.66 0.55 0.56 0.71 0.65 0.41
1.10 0.96 0.89 0.83 0.73 0.67 0.67 0.70 0.80 0.87 0.89 0.80 0.80 0.79 0.83 0.96 0.96 0.83 0.52 0.46 0.51 0.49 0.45 0.47 0.54 0.64 0.70 0.81 1.04 1.25 1.44 1.20 0.99 0.93 1.00 1.04 1.03 0.87 0.71 0.76 1.12 1.31 1.05
0.68 0.66 0.64 0.66 0.65 0.64 0.63 0.63 0.69 0.77 0.85 0.89 0.90 0.96 1.00 1.00 1.06 1.13 0.92 0.76 0.70 0.62 0.58 0.64 0.72 0.85 0.93 1.00 1.09 1.27 1.27 1.28 1.23 1.12 1.03 0.94 0.91 0.92 0.91 0.98 1.26 1.55 1.66
0.47 0.51 0.54 0.59 0.59 0.63 0.69 0.76 0.76 0.76 0.83 0.93 0.97 1.05 1.14 1.14 1.21 1.30 1.23 1.04 0.95 0.93 0.93 0.91 0.90 1.02 1.00 1.04 1.10 1.02 0.84 0.89 0.91 0.89 0.87 0.82 0.79 0.84 0.90 0.93 1.09 1.34 1.61
0.47 0.50 0.57 0.63 0.62 0.64 0.65 0.74 0.78 0.85 0.91 0.94 0.95 1.10 1.19 1.15 1.26 1.39 1.41 1.37 1.25 1.26 1.32 1.30 1.07 0.97 0.96 1.00 1.03 0.90 0.79 0.69 0.54 0.47 0.45 0.47 0.50 0.58 0.69 0.83 0.95 1.01 1.12
0.50 0.55 0.63 0.71 0.74 0.74 0.76 0.80 0.81 0.91 1.08 1.15 1.14 1.17 1.23 1.22 1.27 1.39 1.49 1.52 1.50 1.45 1.47 1.44 1.15 0.97 0.86 0.87 0.93 0.94 0.96 0.74 0.44 0.32 0.29 0.28 0.30 0.35 0.41 0.53 0.65 0.78 0.89
0.55 0.59 0.63 0.66 0.71 0.73 0.76 0.80 0.86 0.96 1.10 1.17 1.25 1.35 1.34 1.30 1.34 1.40 1.44 1.54 1.63 1.63 1.55 1.42 1.22 1.08 0.98 0.81 0.80 0.76 0.75 0.58 0.37 0.29 0.27 0.26 0.24 0.25 0.28 0.36 0.45 0.54 0.65
0.54 0.61 0.58 0.52 0.49 0.55 0.66 0.80 0.88 0.96 1.05 1.08 1.15 1.17 1.16 1.19 1.23 1.19 1.26 1.38 1.54 1.65 1.52 1.46 1.37 1.30 1.21 1.08 0.91 0.70 0.55 0.42 0.38 0.33 0.28 0.26 0.25 0.25 0.24 0.25 0.30 0.39 0.48
0.52 0.57 0.54 0.49 0.47 0.54 0.66 0.80 0.96 1.16 1.28 1.24 1.16 1.07 1.00 1.05 1.11 1.14 1.23 1.26 1.32 1.50 1.50 1.50 1.50 1.49 1.35 1.15 1.03 0.85 0.64 0.51 0.48 0.45 0.34 0.28 0.25 0.26 0.24 0.23 0.28 0.32 0.42
0.51 0.52 0.53 0.58 0.68 0.77 0.87 0.99 1.05 1.19 1.24 1.15 1.10 1.02 0.95 0.94 0.96 1.03 1.14 1.21 1.21 1.29 1.40 1.44 1.48 1.51 1.45 1.24 1.03 0.89 0.74 0.71 0.67 0.53 0.37 0.29 0.25 0.25 0.26 0.24 0.29 0.37 0.50
0.37 0.47 0.59 0.76 0.88 0.93 0.96 1.03 1.01 0.98 0.98 0.90 0.83 0.78 0.83 0.93 0.97 0.92 0.91 0.95 1.02 1.12 1.19 1.26 1.37 1.45 1.42 1.34 1.10 0.97 0.91 0.81 0.74 0.56 0.45 0.35 0.28 0.23 0.23 0.21 0.21 0.32 0.45
0.32 0.44 0.61 0.70 0.70 0.72 0.79 0.87 0.87 0.84 0.79 0.74 0.65 0.51 0.51 0.69 0.84 0.85 0.79 0.78 0.79 0.86 0.94 1.05 1.17 1.29 1.32 1.29 1.12 0.93 0.87 0.89 0.83 0.73 0.65 0.55 0.44 0.38 0.37 0.35 0.29 0.28 0.31
0.31 0.39 0.48 0.49 0.45 0.36 0.35 0.39 0.47 0.55 0.59 0.59 0.50 0.44 0.43 0.48 0.53 0.56 0.61 0.64 0.67 0.70 0.79 0.93 1.07 1.15 1.14 1.12 1.12 1.08 0.98 0.95 0.99 0.95 0.93 0.92 0.75 0.70 0.69 0.67 0.52 0.31 0.21
0.32 0.38 0.37 0.38 0.40 0.38 0.26 0.20 0.21 0.32 0.40 0.42 0.41 0.41 0.35 0.32 0.34 0.31 0.32 0.35 0.39 0.46 0.56 0.72 0.91 1.01 1.08 1.02 1.09 1.13 1.09 1.15 1.21 1.22 1.16 1.23 1.03 0.86 0.80 0.73 0.62 0.42 0.28
0.40 0.44 0.40 0.40 0.43 0.41 0.29 0.21 0.17 0.19 0.30 0.34 0.35 0.34 0.32 0.34 0.34 0.31 0.26 0.25 0.23 0.25 0.32 0.41 0.61 0.83 0.96 1.06 1.03 1.07 1.08 1.11 1.12 1.03 0.96 1.13 1.14 1.10 0.98 0.74 0.61 0.51 0.40
0.49 0.47 0.45 0.46 0.49 0.49 0.35 0.23 0.18 0.25 0.35 0.35 0.35 0.33 0.32 0.32 0.31 0.29 0.29 0.26 0.24 0.24 0.25 0.30 0.41 0.62 0.80 0.87 0.97 1.02 1.01 0.93 0.87 0.67 0.51 0.68 0.87 0.97 1.10 1.02 0.76 0.65 0.52
0.63 0.56 0.51 0.53 0.57 0.63 0.53 0.31 0.23 0.33 0.48 0.50 0.51 0.46 0.39 0.35 0.32 0.24 0.25 0.27 0.24 0.22 0.22 0.23 0.26 0.39 0.55 0.66 0.70 0.72 0.78 0.76 0.67 0.57 0.37 0.32 0.39 0.53 0.71 0.79 0.73 0.70 0.71